This demonstration page uses our WeatherBlox Daily Observations layout. Learn more.

Left ArrowRight Arrow

39.51506, -84.39828

Hourly Observations for October 7, 2018

Temp ( °F °C ) Dew Point ( °F °C ) Humidity (%) Winds ( mph kmh ) Pressure ( in mb ) Visibility ( mi km ) Precip ( " mm )
12:15 am 00:15 Clear with Mist and Fog 68 19.9 67 19.7 99 99 Calm 30.06 1018 2.5 4.02335 0 0
12:35 am 00:35 Clear with Mist and Fog 67 19.6 67 19.2 98 98 Calm 30.06 1018 4 6.43736 0 0
12:55 am 00:55 Mostly Cloudy with Mist and Fog 67 19.6 67 19.4 99 99 Calm 30.06 1018 0.75 1.207005 0 0
1:15 am 01:15 Mostly Cloudy with Fog 67 19.6 67 19.4 99 99 Calm 30.06 1018 0.5 0.80467 0 0
1:35 am 01:35 Mostly Cloudy with Fog 67 19.4 67 19.2 99 99 Calm 30.06 1018 0.25 0.402335 0 0
1:55 am 01:55 Mostly Cloudy with Fog 67 19.3 67 19.2 99 99 Calm 30.06 1018 0.5 0.80467 0 0
2:15 am 02:15 Clear with Mist and Fog 67 19.5 67 19.4 99 99 Calm 30.09 1019 5 8.0467 0 0
2:35 am 02:35 Mostly Cloudy with Fog 66 19 66 18.9 99 99 Calm 30.09 1019 0.5 0.80467 0 0
2:55 am 02:55 Mostly Cloudy with Fog 66 18.8 66 18.7 99 99 Calm 30.09 1019 0.25 0.402335 0 0
3:15 am 03:15 Mostly Cloudy with Fog 67 19.4 67 19.3 99 99 Calm 30.09 1019 0.25 0.402335 0 0
3:35 am 03:35 Mostly Cloudy with Fog 66 18.8 66 18.7 99 99 Calm 30.09 1019 0.25 0.402335 0 0
3:55 am 03:55 Mostly Cloudy with Fog 65 18.3 65 18.2 99 99 Calm 30.09 1019 0.25 0.402335 0 0
4:15 am 04:15 Mostly Cloudy with Fog 65 18.6 65 18.6 100 100 Calm 30.09 1019 0.5 0.80467 0 0
4:35 am 04:35 Mostly Cloudy with Fog 65 18.5 65 18.5 100 100 Calm 30.09 1019 0.25 0.402335 0 0
4:55 am 04:55 Mostly Cloudy with Fog 64 17.8 64 17.7 99 99 Calm 30.09 1019 0.5 0.80467 0 0
5:15 am 05:15 Mostly Cloudy with Fog 64 17.9 64 17.8 99 99 Calm 30.09 1019 0.5 0.80467 0 0
5:35 am 05:35 Mostly Cloudy with Fog 65 18.1 64 18 99 99 Calm 30.12 1020 0.25 0.402335 0 0
5:55 am 05:55 Mostly Cloudy with Fog 64 17.8 64 17.7 99 99 Calm 30.12 1020 0.25 0.402335 0 0
6:15 am 06:15 Mostly Cloudy with Fog 64 17.6 64 17.6 100 100 Calm 30.12 1020 0.25 0.402335 0 0
6:35 am 06:35 Mostly Cloudy with Mist and Fog 64 17.7 64 17.7 100 100 Calm 30.12 1020 0.75 1.207005 0 0
6:55 am 06:55 Mostly Cloudy with Fog 63 17.3 63 17.2 99 99 Calm 30.12 1020 0.25 0.402335 0 0
7:15 am 07:15 Mostly Cloudy with Fog 64 17.5 63 17.4 99 99 Calm 30.15 1021 0.25 0.402335 0 0
7:35 am 07:35 Mostly Cloudy with Mist and Fog 63 17.1 63 17 99 99 Calm 30.15 1021 0.75 1.207005 0 0
7:55 am 07:55 Mostly Cloudy with Fog 63 17 63 17 100 100 Calm 30.15 1021 0.5 0.80467 0 0
8:15 am 08:15 Mostly Cloudy with Fog 63 17.3 63 17.2 99 99 Calm 30.15 1021 0.25 0.402335 0 0
8:35 am 08:35 Mostly Cloudy with Mist and Fog 65 18.4 65 18.3 99 99 Calm 30.15 1021 1 1.60934 0 0
8:55 am 08:55 Mostly Cloudy with Mist and Fog 67 19.4 67 19.3 99 99 Calm 30.15 1021 0.75 1.207005 0 0
9:15 am 09:15 Mostly Cloudy with Mist and Fog 69 20.3 68 20.2 99 99 Calm 30.18 1022 1.25 2.011675 0 0
9:35 am 09:35 Sunny with Mist and Fog 70 21 69 20.5 97 97 Calm 30.18 1022 3.5 5.63269 0 0
9:55 am 09:55 Sunny 72 22.2 70 21 93 93 Calm 30.18 1022 10 16.0934 0 0
10:15 am 10:15 Sunny 74 23.3 70 21.1 88 88 SSW 3 6 30.18 1022 10 16.0934 0 0
10:35 am 10:35 Sunny 75 23.9 69 20.8 83 83 S 5 7 30.18 1022 10 16.0934 0 0
10:55 am 10:55 Sunny 76 24.6 69 20.8 79 79 S 6 9 30.18 1022 10 16.0934 0 0
11:15 am 11:15 Sunny 78 25.3 69 20.4 74 74 S 6 9 30.18 1022 10 16.0934 0 0
11:35 am 11:35 Sunny 80 26.4 69 20.6 71 71 SSW 7 11 30.18 1022 10 16.0934 0 0
11:55 am 11:55 Sunny 82 27.7 70 21.2 68 68 SSW 6 9 30.18 1022 10 16.0934 0 0
12:15 pm 12:15 Sunny 83 28.5 69 20.4 62 62 SW 5 7 30.18 1022 10 16.0934 0 0
12:35 pm 12:35 Sunny 84 28.7 69 20.4 61 61 S 7 11 30.18 1022 10 16.0934 0 0
12:55 pm 12:55 Sunny 84 29.1 68 20 58 58 SSW 7 11 30.18 1022 10 16.0934 0 0
1:15 pm 13:15 Sunny 85 29.5 67 19.5 55 55 S 9 15 30.15 1021 10 16.0934 0 0
1:35 pm 13:35 Sunny 86 30.1 67 19.3 52 52 SW 13 20 30.12 1020 10 16.0934 0 0
1:55 pm 13:55 Sunny 86 30.2 67 19.5 53 53 SW 10 17 30.12 1020 10 16.0934 0 0
2:15 pm 14:15 Sunny 86 30.2 66 19.1 51 51 SW 9 15 30.12 1020 10 16.0934 0 0
2:35 pm 14:35 Sunny 87 30.6 66 19 50 50 SW 12 19 30.12 1020 10 16.0934 0 0
2:55 pm 14:55 Sunny 87 30.8 66 19 49 49 SW 9 15 30.12 1020 10 16.0934 0 0
3:15 pm 15:15 Sunny 87 30.6 66 19 50 50 SSW 10 17 30.09 1019 10 16.0934 0 0
3:35 pm 15:35 Sunny 87 30.8 66 19.1 50 50 SSW 10 17 30.09 1019 10 16.0934 0 0
3:55 pm 15:55 Sunny 87 30.7 66 19.1 50 50 SSW 9 15 30.09 1019 10 16.0934 0 0
4:15 pm 16:15 Sunny 87 30.7 65 18.3 48 48 SSW 9 15 30.09 1019 10 16.0934 0 0
4:35 pm 16:35 Sunny 87 30.5 66 18.9 50 50 SW 9 15 30.09 1019 10 16.0934 0 0
4:55 pm 16:55 Sunny 87 30.3 67 19.2 51 51 SSW 10 17 30.09 1019 10 16.0934 0 0
5:15 pm 17:15 Sunny 87 30.3 67 19.4 52 52 S 8 13 30.09 1019 10 16.0934 0 0
5:35 pm 17:35 Sunny 86 29.9 67 19.5 54 54 SW 7 11 30.09 1019 10 16.0934 0 0
5:55 pm 17:55 Sunny 85 29.6 67 19.2 54 54 SW 5 7 30.09 1019 10 16.0934 0 0
6:15 pm 18:15 Sunny 84 28.9 68 20.2 59 59 SSW 3 6 30.12 1020 10 16.0934 0 0
6:35 pm 18:35 Sunny 83 28.1 69 20.7 64 64 Calm 30.12 1020 10 16.0934 0 0
6:55 pm 18:55 Sunny 78 25.7 71 21.4 77 77 Calm 30.12 1020 10 16.0934 0 0
7:15 pm 19:15 Clear 77 24.8 70 21.3 81 81 Calm 30.12 1020 10 16.0934 0 0
7:35 pm 19:35 Clear 74 23.3 71 21.5 90 90 N 3 6 30.12 1020 10 16.0934 0 0
7:55 pm 19:55 Clear 73 22.5 70 21.1 92 92 Calm 30.12 1020 10 16.0934 0 0
8:15 pm 20:15 Clear 71 21.9 69 20.8 94 94 Calm 30.12 1020 10 16.0934 0 0
8:35 pm 20:35 Clear 71 21.9 69 20.7 93 93 Calm 30.12 1020 10 16.0934 0 0
8:55 pm 20:55 Clear 72 22 69 20.7 92 92 Calm 30.15 1021 10 16.0934 0 0
9:15 pm 21:15 Clear 70 21.1 68 20.2 95 95 Calm 30.15 1021 7 11.26538 0 0
9:35 pm 21:35 Clear 71 21.4 68 20.2 93 93 Calm 30.15 1021 10 16.0934 0 0
9:55 pm 21:55 Clear 70 21.3 69 20.3 94 94 NE 3 6 30.15 1021 10 16.0934 0 0
10:15 pm 22:15 Clear 70 21.3 69 20.3 94 94 Calm 30.15 1021 10 16.0934 0 0
10:35 pm 22:35 Mostly Cloudy 69 20.8 68 20.1 96 96 Calm 30.15 1021 10 16.0934 0 0
10:55 pm 22:55 Clear 69 20.7 68 20.1 96 96 Calm 30.15 1021 7 11.26538 0 0
11:15 pm 23:15 Clear 69 20.6 68 20.1 97 97 Calm 30.15 1021 7 11.26538 0 0
11:35 pm 23:35 Clear with Mist and Fog 68 20.2 68 19.8 98 98 Calm 30.15 1021 7 11.26538 0 0
11:55 pm 23:55 Clear with Mist and Fog 69 20.3 68 20 98 98 Calm 30.15 1021 5 8.0467 0 0

Powered by AerisWeather